Starlink 11616

operational
NORAD ID: 63137 Int'l Des: 2025-043 Owner: SPXS Country: US Constellation: starlink
LEOCIRCULAR

About Starlink 11616

Description loading...

Live Position

Loading 3D Globe...

Upcoming Passes

Altitude History

Altitude vs Time

uPlot chart will show altitude changes over time

Two-Line Element Set

1 63137U 25043F 25352.09892181 .00268460 00000-0 20270-2 0 9998
2 63137 43.0000 22.1954 0001167 260.7245 99.3490 15.70861034 46642
Epoch: Dec 18, 2025 • Age: 11 hours

Current Status

Altitude 357.6 km
Velocity 7.70 km/s
Sub-Earth Point 34.28°N, 138.4°W
Launch Date Mar 3, 2025
Age 0.7 years
Type internet

Technical Details

Classification Payload
Mass 960.00 kg
Dry Mass 910.00 kg
Total Mass 960.00 kg
Length 0.30 m
Diameter 4.10 m
Span 29.00 m
Shape Box + pan
Manufacturer SPXS
Bus Type Starlink V2MD
Phase Status In Orbit
Owner/State SPXS/US

Large Constellations

Loading constellations...